User: anonymous   Login
Location: Sewell
(39.7660°N, 75.1450°W)
Time: 00:22:05
(UTC-04:00)
Language:

ISS - Orbit

View from above orbital plane
View from above orbital plane
View from above satellite
View from above satellite

Ground track
Ground track

The orbit data is extracted from the following two-line orbital elements,

1 25544U 98067A   15216.85800248  .00005972  00000-0  94376-4 0  9996
2 25544 051.6434 201.0106 0001238 045.5890 029.9638 15.55001402955616
Epoch (UTC): 04 August 2015 20:35:31
Eccentricity: 0.0001238
inclination: 51.6434°
perigee height: 401 km
apogee height: 403 km
right ascension of ascending node: 201.0106°
argument of perigee: 45.5890°
revolutions per day: 15.55001402
mean anomaly at epoch: 29.9638°
orbit number at epoch: 95561

The dashed part of the orbit path shows where the satellite is in the earth's shadow,  

DLR